• în România
  • Lista ţărilor
  • Pe 7 zile
  • Temperatura apei
  • Hartă satelitară
  • Meteo pe hartă
  • Widget-uri
  • user-avatar
    Intrare

    Meteo pe oră la Igls

    Astăzi, 18 Februarie, Duminică

    Timp Temperatura Precipitaţii Vânt Presiune Umiditate
    00:00 +1°C° 0,7 mm 2 m/s 684 mmHg 97%
    01:00 +1°C° 0 mm 1 m/s 684 mmHg 97%
    02:00 -1°C° 0,4 mm 2 m/s 684 mmHg 97%
    03:00 -2°C° 0,4 mm 2 m/s 684 mmHg 96%
    04:00 -2°C° 0,4 mm 2 m/s 685 mmHg 96%
    05:00 -3°C° 0,2 mm 2 m/s 685 mmHg 96%
    06:00 -3°C° 0,2 mm 2 m/s 685 mmHg 95%
    07:00 -2°C° 0,2 mm 1 m/s 685 mmHg 95%
    08:00 -1°C° 0,1 mm 1 m/s 685 mmHg 93%
    09:00 0°C° 0,1 mm 1 m/s 686 mmHg 91%
    10:00 +1°C° 0,1 mm 1 m/s 686 mmHg 89%
    11:00 -1°C° 0,1 mm 2 m/s 686 mmHg 89%
    12:00 +1°C° 0,1 mm 2 m/s 686 mmHg 88%
    13:00 +1°C° 0,1 mm 2 m/s 686 mmHg 88%
    14:00 +1°C° 0,1 mm 2 m/s 686 mmHg 88%
    15:00 +1°C° 0,1 mm 2 m/s 686 mmHg 89%
    16:00 +2°C° 0,1 mm 1 m/s 686 mmHg 89%
    17:00 +1°C° 0,1 mm 1 m/s 686 mmHg 91%
    18:00 0°C° 0,1 mm 1 m/s 685 mmHg 93%
    19:00 -1°C° 0,1 mm 1 m/s 685 mmHg 95%
    20:00 -2°C° 0 mm 1 m/s 685 mmHg 94%
    21:00 -2°C° 0 mm 1 m/s 685 mmHg 94%
    22:00 -3°C° 0 mm 1 m/s 685 mmHg 93%
    23:00 -4°C° 0 mm 1 m/s 685 mmHg 91%

    Mâine, 19 Februarie, Luni

    Timp Temperatura Precipitaţii Vânt Presiune Umiditate
    00:00 -4°C° 0 mm 1 m/s 685 mmHg 90%
    01:00 -4°C° 0 mm 1 m/s 685 mmHg 88%
    02:00 -4°C° 0 mm 1 m/s 684 mmHg 87%
    03:00 -6°C° 0 mm 1 m/s 684 mmHg 86%
    04:00 -6°C° 0 mm 1 m/s 683 mmHg 85%
    05:00 -6°C° 0 mm 1 m/s 683 mmHg 85%
    06:00 -6°C° 0 mm 1 m/s 683 mmHg 84%
    07:00 -6°C° 0 mm 1 m/s 683 mmHg 84%
    08:00 -3°C° 0 mm 1 m/s 683 mmHg 80%
    09:00 -2°C° 0 mm 0 m/s 683 mmHg 77%
    10:00 0°C° 0 mm 0 m/s 683 mmHg 73%
    11:00 +1°C° 0 mm 0 m/s 683 mmHg 75%
    12:00 +1°C° 0 mm 0 m/s 683 mmHg 76%
    13:00 +3°C° 0 mm 1 m/s 682 mmHg 78%
    14:00 +3°C° 0,1 mm 1 m/s 682 mmHg 81%
    15:00 +3°C° 0,1 mm 1 m/s 682 mmHg 85%
    16:00 +3°C° 0,1 mm 1 m/s 681 mmHg 88%
    17:00 +2°C° 0,1 mm 1 m/s 682 mmHg 91%
    18:00 +1°C° 0,1 mm 1 m/s 682 mmHg 93%
    19:00 0°C° 0,1 mm 1 m/s 682 mmHg 96%
    20:00 -1°C° 0,1 mm 1 m/s 682 mmHg 96%
    21:00 -1°C° 0,1 mm 1 m/s 682 mmHg 96%
    22:00 -2°C° 0,1 mm 1 m/s 682 mmHg 96%
    23:00 -3°C° 0 mm 1 m/s 681 mmHg 95%

    Poimâine, 20 Februarie, Marţi

    Timp Temperatura Precipitaţii Vânt Presiune Umiditate
    00:00 -3°C° 0 mm 1 m/s 681 mmHg 95%
    01:00 -4°C° 0 mm 1 m/s 681 mmHg 95%
    02:00 -6°C° 0 mm 1 m/s 680 mmHg 94%
    03:00 -6°C° 0 mm 1 m/s 680 mmHg 93%
    04:00 -7°C° 0 mm 1 m/s 680 mmHg 92%
    05:00 -7°C° 0 mm 1 m/s 680 mmHg 91%
    06:00 -7°C° 0 mm 1 m/s 679 mmHg 89%
    07:00 -8°C° 0 mm 1 m/s 679 mmHg 87%
    08:00 -6°C° 0 mm 1 m/s 679 mmHg 83%
    09:00 -3°C° 0 mm 1 m/s 680 mmHg 78%
    10:00 -1°C° 0 mm 1 m/s 680 mmHg 73%
    11:00 0°C° 0 mm 1 m/s 679 mmHg 73%
    12:00 -1°C° 0 mm 2 m/s 679 mmHg 72%
    13:00 +1°C° 0 mm 2 m/s 679 mmHg 71%
    14:00 -1°C° 0 mm 2 m/s 679 mmHg 75%
    15:00 -1°C° 0 mm 2 m/s 678 mmHg 79%
    16:00 -1°C° 0 mm 2 m/s 678 mmHg 83%
    17:00 -3°C° 0,1 mm 2 m/s 678 mmHg 87%
    18:00 -4°C° 0,1 mm 2 m/s 679 mmHg 90%
    19:00 -3°C° 0,1 mm 1 m/s 679 mmHg 94%
    20:00 -3°C° 0,1 mm 1 m/s 679 mmHg 94%
    21:00 -4°C° 0,1 mm 1 m/s 679 mmHg 94%
    22:00 -6°C° 0,1 mm 1 m/s 679 mmHg 95%
    23:00 -6°C° 0 mm 1 m/s 679 mmHg 94%

    21 Februarie, Miercuri

    Timp Temperatura Precipitaţii Vânt Presiune Umiditate
    00:00 -7°C° 0 mm 1 m/s 680 mmHg 94%
    01:00 -7°C° 0 mm 1 m/s 680 mmHg 94%
    02:00 -8°C° 0 mm 1 m/s 680 mmHg 93%
    03:00 -8°C° 0 mm 1 m/s 679 mmHg 93%
    04:00 -8°C° 0 mm 1 m/s 679 mmHg 93%
    05:00 -9°C° 0 mm 1 m/s 679 mmHg 92%
    06:00 -9°C° 0 mm 1 m/s 679 mmHg 92%
    07:00 -9°C° 0 mm 1 m/s 680 mmHg 91%
    08:00 -7°C° 0,1 mm 1 m/s 680 mmHg 89%
    09:00 -4°C° 0,1 mm 1 m/s 680 mmHg 86%
    10:00 -3°C° 0,1 mm 1 m/s 680 mmHg 84%
    11:00 -4°C° 0,1 mm 2 m/s 680 mmHg 83%
    12:00 -3°C° 0,1 mm 2 m/s 679 mmHg 83%
    13:00 -2°C° 0,1 mm 2 m/s 679 mmHg 82%
    14:00 -2°C° 0,1 mm 2 m/s 679 mmHg 84%
    15:00 -2°C° 0,1 mm 2 m/s 678 mmHg 86%
    16:00 -2°C° 0,1 mm 2 m/s 678 mmHg 88%
    17:00 -3°C° 0,2 mm 2 m/s 678 mmHg 90%
    18:00 -4°C° 0,2 mm 2 m/s 678 mmHg 92%
    19:00 -5°C° 0,2 mm 2 m/s 678 mmHg 95%
    20:00 -5°C° 0,2 mm 2 m/s 678 mmHg 95%
    21:00 -3°C° 0,2 mm 1 m/s 678 mmHg 95%
    22:00 -4°C° 0,2 mm 1 m/s 678 mmHg 95%
    23:00 -4°C° 0,1 mm 1 m/s 678 mmHg 95%

    22 Februarie, Joi

    Timp Temperatura Precipitaţii Vânt Presiune Umiditate
    00:00 -6°C° 0,1 mm 1 m/s 677 mmHg 95%
    01:00 -6°C° 0,1 mm 1 m/s 677 mmHg 95%
    02:00 -6°C° 0,1 mm 1 m/s 676 mmHg 94%
    03:00 -6°C° 0,1 mm 1 m/s 676 mmHg 94%
    04:00 -6°C° 0,1 mm 1 m/s 676 mmHg 94%
    05:00 -6°C° 0,2 mm 1 m/s 675 mmHg 93%
    06:00 -6°C° 0,2 mm 1 m/s 675 mmHg 93%
    07:00 -6°C° 0,2 mm 1 m/s 675 mmHg 93%
    08:00 -4°C° 0,2 mm 1 m/s 675 mmHg 92%
    09:00 -5°C° 0,2 mm 2 m/s 675 mmHg 91%
    10:00 -4°C° 0,2 mm 2 m/s 675 mmHg 89%
    11:00 -3°C° 0,2 mm 2 m/s 675 mmHg 88%
    12:00 -2°C° 0,2 mm 2 m/s 674 mmHg 88%
    13:00 -2°C° 0,2 mm 2 m/s 674 mmHg 87%
    14:00 -2°C° 0,2 mm 2 m/s 674 mmHg 87%
    15:00 -2°C° 0,2 mm 2 m/s 674 mmHg 88%
    16:00 -2°C° 0,2 mm 2 m/s 674 mmHg 89%
    17:00 -3°C° 0,1 mm 2 m/s 674 mmHg 91%
    18:00 -3°C° 0,1 mm 2 m/s 674 mmHg 93%
    19:00 -2°C° 0,1 mm 1 m/s 674 mmHg 95%
    20:00 -3°C° 0,1 mm 1 m/s 674 mmHg 95%
    21:00 -3°C° 0,1 mm 1 m/s 674 mmHg 95%
    22:00 -4°C° 0,1 mm 1 m/s 674 mmHg 94%
    23:00 -4°C° 0,1 mm 1 m/s 673 mmHg 94%

    23 Februarie, Vineri

    Timp Temperatura Precipitaţii Vânt Presiune Umiditate
    00:00 -6°C° 0,1 mm 1 m/s 673 mmHg 94%
    01:00 -6°C° 0,1 mm 1 m/s 673 mmHg 94%
    02:00 -6°C° 0,1 mm 1 m/s 673 mmHg 94%
    03:00 -6°C° 0,1 mm 1 m/s 672 mmHg 94%
    04:00 -6°C° 0,1 mm 1 m/s 672 mmHg 93%
    05:00 -6°C° 0,1 mm 1 m/s 672 mmHg 93%
    06:00 -4°C° 0,1 mm 1 m/s 672 mmHg 93%
    07:00 -4°C° 0,1 mm 1 m/s 672 mmHg 93%
    08:00 -3°C° 0,2 mm 1 m/s 672 mmHg 92%
    09:00 -2°C° 0,2 mm 1 m/s 672 mmHg 90%
    10:00 -1°C° 0,2 mm 1 m/s 672 mmHg 89%
    11:00 -1°C° 0,2 mm 1 m/s 671 mmHg 89%
    12:00 -2°C° 0,2 mm 2 m/s 671 mmHg 88%
    13:00 -1°C° 0,2 mm 2 m/s 671 mmHg 88%
    14:00 -1°C° 0,2 mm 2 m/s 671 mmHg 89%
    15:00 -2°C° 0,2 mm 2 m/s 671 mmHg 90%
    16:00 -2°C° 0,2 mm 2 m/s 671 mmHg 90%
    17:00 -3°C° 0,3 mm 2 m/s 671 mmHg 92%
    18:00 -3°C° 0,3 mm 2 m/s 671 mmHg 94%
    19:00 -2°C° 0,3 mm 1 m/s 671 mmHg 96%
    20:00 -3°C° 0,3 mm 1 m/s 671 mmHg 96%
    21:00 -3°C° 0,3 mm 1 m/s 672 mmHg 95%
    22:00 -3°C° 0,3 mm 1 m/s 672 mmHg 95%
    23:00 -4°C° 0,2 mm 1 m/s 672 mmHg 95%
    Arată mai mult